TimeCST,TemperatureF,Dew PointF,Humidity,Sea Level PressureIn,VisibilityMPH,Wind Direction,Wind SpeedMPH,Gust SpeedMPH,PrecipitationIn,Events,Conditions,WindDirDegrees,DateUTC
12:26 AM,21.2,12.2,68,30.35,10.0,NW,25.3,36.8,N/A,,Scattered Clouds,320,2012-11-23 06:26:00
12:55 AM,21.0,12.0,68,30.42,10.0,NW,24.2,31.1,N/A,,Clear,320,2012-11-23 06:55:00
1:55 AM,19.9,12.0,71,30.44,10.0,NW,21.9,28.8,N/A,,Clear,320,2012-11-23 07:55:00
2:35 AM,19.4,12.2,74,30.41,10.0,NW,19.6,-,N/A,,Mostly Cloudy,310,2012-11-23 08:35:00
2:51 AM,19.4,12.2,74,30.42,10.0,NW,20.7,27.6,N/A,,Scattered Clouds,320,2012-11-23 08:51:00
2:55 AM,19.0,12.0,74,30.47,10.0,NW,20.7,-,N/A,,Partly Cloudy,320,2012-11-23 08:55:00
3:55 AM,19.0,12.0,74,30.49,10.0,NW,18.4,27.6,N/A,,Clear,320,2012-11-23 09:55:00
4:55 AM,17.1,12.0,81,30.51,10.0,NW,13.8,-,N/A,,Clear,320,2012-11-23 10:55:00
5:55 AM,16.0,12.0,84,30.53,10.0,NW,9.2,-,N/A,,Scattered Clouds,310,2012-11-23 11:55:00
6:55 AM,14.0,10.0,84,30.55,10.0,NW,10.4,-,N/A,,Clear,320,2012-11-23 12:55:00
7:55 AM,15.1,9.0,77,30.56,10.0,NNW,15.0,-,N/A,,Clear,330,2012-11-23 13:55:00
8:55 AM,17.1,9.0,71,30.58,10.0,NNW,18.4,23.0,N/A,,Clear,330,2012-11-23 14:55:00
9:55 AM,19.9,10.0,65,30.58,10.0,NNW,17.3,-,N/A,,Partly Cloudy,340,2012-11-23 15:55:00
10:55 AM,21.9,10.0,60,30.59,10.0,NW,17.3,-,N/A,,Clear,320,2012-11-23 16:55:00
11:55 AM,24.1,10.0,55,30.58,10.0,NNW,13.8,20.7,N/A,,Clear,330,2012-11-23 17:55:00
12:55 PM,26.1,10.0,51,30.55,10.0,NW,13.8,-,N/A,,Clear,320,2012-11-23 18:55:00
1:55 PM,28.0,10.0,47,30.53,10.0,WNW,10.4,18.4,N/A,,Clear,290,2012-11-23 19:55:00
2:55 PM,28.9,10.0,45,30.51,10.0,NW,12.7,-,N/A,,Clear,320,2012-11-23 20:55:00
3:55 PM,28.0,10.9,49,30.51,10.0,NNW,6.9,-,N/A,,Clear,330,2012-11-23 21:55:00
4:55 PM,24.1,12.0,60,30.50,10.0,North,4.6,-,N/A,,Clear,360,2012-11-23 22:55:00
5:55 PM,19.0,10.0,68,30.49,10.0,Calm,Calm,-,N/A,,Clear,0,2012-11-23 23:55:00
6:55 PM,17.1,10.0,74,30.49,10.0,Calm,Calm,-,N/A,,Clear,0,2012-11-24 00:55:00
7:55 PM,18.0,12.0,78,30.45,10.0,ESE,3.5,-,N/A,,Clear,110,2012-11-24 01:55:00
8:55 PM,16.0,10.9,81,30.45,10.0,Calm,Calm,-,N/A,,Clear,0,2012-11-24 02:55:00
9:55 PM,19.9,12.0,71,30.42,10.0,SE,4.6,-,N/A,,Clear,140,2012-11-24 03:55:00
10:55 PM,19.0,10.0,68,30.40,10.0,SSE,5.8,-,N/A,,Clear,150,2012-11-24 04:55:00
11:55 PM,21.0,10.0,63,30.39,10.0,SE,5.8,-,N/A,,Mostly Cloudy,140,2012-11-24 05:55:00